Regional Weather Roundup
Issued by NWS

Home | Current Version | Previous Version | Text Only | Print | Product List | Glossary On
Versions: 1 2 3 4 5 6 7 8 9 10 11 12 13 14 15 16 17 18 19 20 21 22 23 24 25 26 27 28 29 30 31 32 33 34 35 36 37 38 39 40 41 42 43 44 45 46 47 48 49 50
000
ASUS42 KTBW 160310
RWRFL
FLORIDA REGIONAL WEATHER ROUNDUP
NATIONAL WEATHER SERVICE TAMPA BAY RUSKIN FL
1100 PM EDT MON SEP 15 2014

NOTE: "FAIR" INDICATES FEW OR NO CLOUDS BELOW 12,000 FEET WITH NO
SIGNIFICANT WEATHER AND/OR OBSTRUCTIONS TO VISIBILITY.


FLZ001>010-012>015-112-114-115-160400-
PANHANDLE FLORIDA

CITY           SKY/WX    TMP DP  RH WIND       PRES   REMARKS
PENSACOLA      MOCLDY    75  75 100 N3        30.09R
PENSACOLA NAS  MOCLDY    78  76  93 N3        30.08S
MILTON NAS     MOCLDY    76  73  91 CALM      30.10R
CRESTVIEW      MOCLDY    77  76  96 CALM      30.12R
DUKE FIELD     MOCLDY    77  77 100 SE2       30.09S
VALPARAISO     MOCLDY    81  76  84 N2        30.10R
PANAMA CITY    MOCLDY    79  76  90 CALM      30.09R
TYNDALL AFB    MOCLDY    83  75  78 W8        30.10R
APALACHICOLA   CLOUDY    80  74  81 SW9       30.11S

STATION/POSITION SKY/WX   TEMP    WIND        PRES    WAVE   SWELL
                          AIR SEA DIR/SP/G            HT/PER HT/PER
                          (F)     (DEG/KT/KT) (MB)    (FT/S) (FT/S)
30.1N   87.6W              84 86  240/  8/ 10 1018.8R   3/ 7   3/ 7
29.2N   88.2W              83 86  230/  6/  8 1019.7R   4/ 7   3/ 7
28.8N   86.0W              83 86  250/ 10/ 12 1019.8    4/ 6   3/ 6
PANAMA CITY BEAC                              1019.0
CAPE SAN BLAS    NOT AVBL
TOWER C                    76     170/ 14/ 15 1020.7R
28.5N   84.5W              84 85  210/ 10/ 12 1020.2R   3/ 6   3/ 6

$$
FLZ011-016>038-118-127-128-134-139-239-160400-
NORTH FLORIDA

CITY           SKY/WX    TMP DP  RH WIND       PRES   REMARKS
MARIANNA       MOCLDY    78  78 100 SW3       30.10R
TALLAHASSEE    CLOUDY    77  74  90 CALM      30.11F
PERRY          MOCLDY    73  72  94 CALM      30.13S
CROSS CITY       N/A    N/A N/A N/A MISG      30.12S
LAKE CITY      FAIR      73  73 100 CALM      30.14S
GAINESVILLE    CLOUDY    75  74  96 CALM      30.14S
MAYPORT NAS    CLOUDY    77  74  90 CALM      30.13R
JACKSONVILLE   CLOUDY    75  75 100 CALM      30.13R
JAX NAS        CLOUDY    81  75  82 W3        30.14S
JAX CRAIG      CLOUDY    77  74  90 CALM      30.13S
JAX CECIL      CLOUDY    75  75 100 CALM      30.14S
FERNANDINA BEA MOCLDY    77  72  83 CALM      30.13R
ST AUGUSTINE   CLOUDY    77  74  90 SW3       30.14S

STATION/POSITION SKY/WX   TEMP    WIND        PRES    WAVE   SWELL
                          AIR SEA DIR/SP/G            HT/PER HT/PER
                          (F)     (DEG/KT/KT) (MB)    (FT/S) (FT/S)
SHELL POINT                82     240/  3/  5   N/A
KEATON BEACH               83     210/  6/  7 1020.2R
CEDAR KEY                  82     310/  2/  2 1020.5R
FERNANDINA                                    1019.9
30.7N   81.3W                 84                N/A     2/ 6
MAYPORT                    77 86                N/A
31.4N   80.9W              83 85  130/  6/  8 1020.1F   2/ 6   2/ 6
ST AUGUSTINE               78     230/  3/  4 1021.2R

$$
FLZ040-043>046-052-053-057-058-063-144-160400-
INTERIOR CENTRAL FLORIDA

CITY           SKY/WX    TMP DP  RH WIND       PRES   REMARKS
OCALA          CLOUDY    75  73  94 CALM      30.15S
THE VILLAGES     N/A     79  77  94 MISG      30.05F FOG
LEESBURG       MOCLDY    78  73  84 CALM      30.16R
SANFORD        CLOUDY    81  71  71 S3        30.15R
ORLANDO EXEC   MOCLDY    81  73  76 E3        30.15S
ORLANDO INTL   CLOUDY    80  74  81 E3        30.15S
WINTER HAVEN   PTCLDY    79  73  82 E5        30.17R
LAKELAND       PTCLDY    79  72  78 CALM      30.16S
BARTOW         FAIR      79  72  78 NE3       30.16S
OKEECHOBEE     MOCLDY    77  72  83 MISG        N/A

$$
FLZ041-047-054-059-064-141-147-160400-
EAST CENTRAL FLORIDA

CITY           SKY/WX    TMP DP  RH WIND       PRES   REMARKS
DAYTONA BEACH  CLOUDY    78  77  96 W3        30.15R
DELAND         CLOUDY    77  73  88 CALM      30.16S
JFK SPACE CTR  CLOUDY    77  74  91 CALM      30.14S
CAPE CANAVERAL MOCLDY    78  72  82 CALM      30.13S
PATRICK AFB    PTCLDY    83  75  77 SE7       30.14S
MELBOURNE      CLOUDY    84  74  71 SE5       30.14R
VERO BEACH     MOCLDY    79  73  82 CALM      30.14R
FT PIERCE      MOCLDY    77  73  87 CALM      30.14R
STUART         MOCLDY    79  72  78 CALM      30.16R

STATION/POSITION SKY/WX   TEMP    WIND        PRES    WAVE   SWELL
                          AIR SEA DIR/SP/G            HT/PER HT/PER
                          (F)     (DEG/KT/KT) (MB)    (FT/S) (FT/S)
28.5N   80.2W              84 85  150/  4/  6 1020.9R
28.9N   78.5W              83 85  170/  4/  6 1020.7R   2/ 8   2/ 8
TRIDENT PIER                                  1020.3
28.4N   80.5W                 85                N/A     1/13
27.6N   80.2W                 84                N/A     1/ 8

$$
FLZ050-056-061-142-242-148-248-149-249-151-251-155-255-
160-260-160400-
WEST CENTRAL FLORIDA

CITY           SKY/WX    TMP DP  RH WIND       PRES   REMARKS
CRYSTAL RIVER  MOCLDY    75  72  88 CALM      30.14R
INVERNESS      FAIR      75  64  69 CALM      30.16R
BROOKSVILLE    CLOUDY    76  73  91 CALM      30.16R
ZEPHYRHILLS    FAIR      72  72 100 E3        30.17R
CLEARWATER     PTCLDY    80  74  81 CALM      30.14S
TAMPA INTL     PTCLDY    81  73  76 CALM      30.15R
TAMPA EXEC     PTCLDY    77  73  88 CALM      30.16R
PLANT CITY     PTCLDY    79  75  89 CALM      30.17S
MACDILL AFB    CLEAR     80  75  86 N2        30.15R
ST PETERSBURG  CLEAR     84  74  71 N3        30.13R
SARASOTA       CLOUDY    81  75  82 N6        30.13R
VENICE           N/A    N/A N/A N/A MISG        N/A

STATION/POSITION SKY/WX   TEMP    WIND        PRES    WAVE   SWELL
                          AIR SEA DIR/SP/G            HT/PER HT/PER
                          (F)     (DEG/KT/KT) (MB)    (FT/S) (FT/S)
CEDAR KEY                  82     310/  2/  2 1020.5R
28.5N   84.5W              84 85  210/ 10/ 12 1020.2R   3/ 6   3/ 6
27.3N   84.3W                 86                N/A     2/ 6
CLEARWATER BEACH NOT AVBL
MIDDLE TAMPA BAY                              1021.0
VENICE                     82 88   10/  5/  6 1020.2R

$$
FLZ066-069-070-075>078-162-262-165-265-160400-
SOUTHWEST FLORIDA AND KEYS

CITY           SKY/WX    TMP DP  RH WIND       PRES   REMARKS
PUNTA GORDA    CLEAR     80  73  79 MISG      30.16R
FT MYERS       PTCLDY    83  70  64 CALM      30.13R
SOUTHWEST INTL PTCLDY    81  70  69 CALM      30.14R
NAPLES         CLEAR     82  76  81 S6        30.13R
MARCO ISLAND   CLOUDY    81  72  74 SW7       30.14S
MARATHON       CLEAR     83  75  77 E5        30.12S
KEY WEST NAS   CLEAR     83  74  74 E10       30.11S
KEY WEST INTL  CLEAR     83  75  77 E7        30.12S

STATION/POSITION SKY/WX   TEMP    WIND        PRES    WAVE   SWELL
                          AIR SEA DIR/SP/G            HT/PER HT/PER
                          (F)     (DEG/KT/KT) (MB)    (FT/S) (FT/S)
VENICE                     82 88   10/  5/  6 1020.2R
NAPLES                                        1021.0
DRY TORTUGAS               84      80/  8/  9 1019.3F
NW FL BAY                  85     120/  6/  8 1020.2R
SAND KEY                   83      90/ 11/ 13 1019.5F
SOMBRERO KEY               83      80/ 10/ 11 1020.4F
LONG KEY                   84 85  110/  6/  7 1020.9R
MOLASSES REEF              83 85   70/  8/ 10 1020.1R

$$
FLZ067-068-071>074-168-172>174-160400-
SOUTHEAST FLORIDA

CITY           SKY/WX    TMP DP  RH WIND       PRES   REMARKS
W PALM BEACH   PTCLDY    82  74  76 SE6       30.13S
FT LAUDER-EXEC CLEAR     81  76  84 E5        30.14R
FT LAUDERDALE  PTCLDY    83  75  77 E8        30.14R
POMPANO BEACH  CLEAR     83  73  72 E5        30.14R
PEMBROKE PINES CLEAR     81  74  79 E5        30.15R
OPA LOCKA      CLEAR     82  73  74 E3        30.15R
MIAMI          PTCLDY    82  74  76 E7        30.14R
WEST KENDALL   CLEAR     80  73  79 E5        30.14R
HOMESTEAD      CLEAR     81  75  84 NE5       30.14R

STATION/POSITION SKY/WX   TEMP    WIND        PRES    WAVE   SWELL
                          AIR SEA DIR/SP/G            HT/PER HT/PER
                          (F)     (DEG/KT/KT) (MB)    (FT/S) (FT/S)
PORT EVERGLADES            83      70/  4/  6 1020.5
VIRGINIA KEY               83 85                N/A
LAKE WORTH                                    1020.4
FOWEY ROCKS                84 85   70/  8/  9 1020.8S
SETTLEMENT POINT           83      90/  7/  8 1021.3S

$$



USA.gov is the U.S. government's official web portal to all federal, state and local government web resources and services.